owner,sensor,date,latitude,longitude,vertical_datum,sea_water_practical_salinity,qcFlag 
DISL,ioos:station:DISL:BSCA:1,2015-05-01T00:00:00Z,30.3288,-87.8293,1.872,7.11,1111122 
DISL,ioos:station:DISL:BSCA:1,2015-05-01T00:30:00Z,30.3288,-87.8293,1.91,6.58,1111122 
DISL,ioos:station:DISL:BSCA:1,2015-05-01T01:00:00Z,30.3288,-87.8293,1.895,6.44,1111122 
DISL,ioos:station:DISL:BSCA:1,2015-05-01T01:30:00Z,30.3288,-87.8293,1.918,5.72,1111122 
DISL,ioos:station:DISL:BSCA:1,2015-05-01T02:00:00Z,30.3288,-87.8293,1.917,5.36,1111122 
DISL,ioos:station:DISL:BSCA:1,2015-05-01T02:30:00Z,30.3288,-87.8293,1.909,5.41,1111122 
DISL,ioos:station:DISL:BSCA:1,2015-05-01T03:00:00Z,30.3288,-87.8293,1.913,5.26,1111122 
DISL,ioos:station:DISL:BSCA:1,2015-05-01T03:30:00Z,30.3288,-87.8293,1.892,5.42,1111122 
DISL,ioos:station:DISL:BSCA:1,2015-05-01T04:00:00Z,30.3288,-87.8293,1.883,5.5,1111122 
DISL,ioos:station:DISL:BSCA:1,2015-05-01T04:30:00Z,30.3288,-87.8293,1.872,5.49,1111122 
DISL,ioos:station:DISL:BSCA:1,2015-05-01T05:00:00Z,30.3288,-87.8293,1.88,5.53,1111122 
DISL,ioos:station:DISL:BSCA:1,2015-05-01T05:30:00Z,30.3288,-87.8293,1.891,5.55,1111122 
DISL,ioos:station:DISL:BSCA:1,2015-05-01T06:00:00Z,30.3288,-87.8293,1.896,5.61,1111122 
DISL,ioos:station:DISL:BSCA:1,2015-05-01T06:30:00Z,30.3288,-87.8293,1.903,5.95,1111122 
DISL,ioos:station:DISL:BSCA:1,2015-05-01T07:00:00Z,30.3288,-87.8293,1.9,5.92,1111122 
DISL,ioos:station:DISL:BSCA:1,2015-05-01T07:30:00Z,30.3288,-87.8293,1.897,6.06,1111122 
DISL,ioos:station:DISL:BSCA:1,2015-05-01T08:00:00Z,30.3288,-87.8293,1.898,6.2,1111122 
DISL,ioos:station:DISL:BSCA:1,2015-05-01T08:30:00Z,30.3288,-87.8293,1.889,6.14,1111122 
DISL,ioos:station:DISL:BSCA:1,2015-05-01T09:00:00Z,30.3288,-87.8293,1.886,6.16,1111122 
DISL,ioos:station:DISL:BSCA:1,2015-05-01T09:30:00Z,30.3288,-87.8293,1.899,6.16,1111122 
DISL,ioos:station:DISL:BSCA:1,2015-05-01T10:00:00Z,30.3288,-87.8293,1.901,6.43,1111122 
DISL,ioos:station:DISL:BSCA:1,2015-05-01T10:30:00Z,30.3288,-87.8293,1.913,6.2,1111122 
DISL,ioos:station:DISL:BSCA:1,2015-05-01T11:00:00Z,30.3288,-87.8293,1.922,6.45,1111122 
DISL,ioos:station:DISL:BSCA:1,2015-05-01T11:30:00Z,30.3288,-87.8293,1.925,6.86,1111122 
DISL,ioos:station:DISL:BSCA:1,2015-05-01T12:00:00Z,30.3288,-87.8293,1.949,6.88,1111122 
DISL,ioos:station:DISL:BSCA:1,2015-05-01T12:30:00Z,30.3288,-87.8293,1.975,6.85,1111122 
DISL,ioos:station:DISL:BSCA:1,2015-05-01T13:00:00Z,30.3288,-87.8293,1.969,6.67,1111122 
DISL,ioos:station:DISL:BSCA:1,2015-05-01T13:30:00Z,30.3288,-87.8293,1.954,5.88,1111122 
DISL,ioos:station:DISL:BSCA:1,2015-05-01T14:00:00Z,30.3288,-87.8293,1.928,5.87,1111122 
DISL,ioos:station:DISL:BSCA:1,2015-05-01T14:30:00Z,30.3288,-87.8293,1.908,5.98,1111122 
DISL,ioos:station:DISL:BSCA:1,2015-05-01T15:00:00Z,30.3288,-87.8293,1.9,6.0,1111122 
DISL,ioos:station:DISL:BSCA:1,2015-05-01T15:30:00Z,30.3288,-87.8293,1.915,6.01,1111122 
DISL,ioos:station:DISL:BSCA:1,2015-05-01T16:00:00Z,30.3288,-87.8293,1.924,5.98,1111122 
DISL,ioos:station:DISL:BSCA:1,2015-05-01T16:30:00Z,30.3288,-87.8293,1.947,5.9,1111122 
DISL,ioos:station:DISL:BSCA:1,2015-05-01T17:00:00Z,30.3288,-87.8293,1.961,5.99,1111122 
DISL,ioos:station:DISL:BSCA:1,2015-05-01T17:30:00Z,30.3288,-87.8293,1.961,6.05,1111122 
DISL,ioos:station:DISL:BSCA:1,2015-05-01T18:00:00Z,30.3288,-87.8293,1.952,6.0,1111122 
DISL,ioos:station:DISL:BSCA:1,2015-05-01T18:30:00Z,30.3288,-87.8293,1.945,6.02,1111122 
DISL,ioos:station:DISL:BSCA:1,2015-05-01T19:00:00Z,30.3288,-87.8293,1.945,6.11,1111122 
DISL,ioos:station:DISL:BSCA:1,2015-05-01T19:30:00Z,30.3288,-87.8293,1.912,6.08,1111122 
DISL,ioos:station:DISL:BSCA:1,2015-05-01T20:00:00Z,30.3288,-87.8293,1.88,6.02,1111122 
DISL,ioos:station:DISL:BSCA:1,2015-05-01T20:30:00Z,30.3288,-87.8293,1.85,6.08,1111122 
DISL,ioos:station:DISL:BSCA:1,2015-05-01T21:00:00Z,30.3288,-87.8293,1.829,6.12,1111122 
DISL,ioos:station:DISL:BSCA:1,2015-05-01T21:30:00Z,30.3288,-87.8293,1.811,5.51,1111122 
DISL,ioos:station:DISL:BSCA:1,2015-05-01T22:00:00Z,30.3288,-87.8293,1.809,5.46,1111122 
DISL,ioos:station:DISL:BSCA:1,2015-05-01T22:30:00Z,30.3288,-87.8293,1.815,5.17,1111122 
DISL,ioos:station:DISL:BSCA:1,2015-05-01T23:00:00Z,30.3288,-87.8293,1.814,5.29,1111122 
DISL,ioos:station:DISL:BSCA:1,2015-05-01T23:30:00Z,30.3288,-87.8293,1.819,5.54,1111122 
DISL,ioos:station:DISL:BSCA:1,2015-05-02T00:00:00Z,30.3288,-87.8293,1.811,5.52,1111122 
DISL,ioos:station:DISL:BSCA:1,2015-05-02T00:30:00Z,30.3288,-87.8293,1.807,5.1,1111122 
DISL,ioos:station:DISL:BSCA:1,2015-05-02T01:00:00Z,30.3288,-87.8293,1.812,5.11,1111122 
DISL,ioos:station:DISL:BSCA:1,2015-05-02T01:30:00Z,30.3288,-87.8293,1.809,5.27,1111122 
DISL,ioos:station:DISL:BSCA:1,2015-05-02T02:00:00Z,30.3288,-87.8293,1.802,5.66,1111122 
DISL,ioos:station:DISL:BSCA:1,2015-05-02T02:30:00Z,30.3288,-87.8293,1.795,5.46,1111122 
DISL,ioos:station:DISL:BSCA:1,2015-05-02T03:00:00Z,30.3288,-87.8293,1.786,5.03,1111122 
DISL,ioos:station:DISL:BSCA:1,2015-05-02T03:30:00Z,30.3288,-87.8293,1.78,4.05,1111122 
DISL,ioos:station:DISL:BSCA:1,2015-05-02T04:00:00Z,30.3288,-87.8293,1.777,3.9,1111122 
DISL,ioos:station:DISL:BSCA:1,2015-05-02T04:30:00Z,30.3288,-87.8293,1.782,3.96,1111122 
DISL,ioos:station:DISL:BSCA:1,2015-05-02T05:00:00Z,30.3288,-87.8293,1.785,4.12,1111122 
DISL,ioos:station:DISL:BSCA:1,2015-05-02T05:30:00Z,30.3288,-87.8293,1.786,4.15,1111122 
DISL,ioos:station:DISL:BSCA:1,2015-05-02T06:00:00Z,30.3288,-87.8293,1.785,4.01,1111122 
DISL,ioos:station:DISL:BSCA:1,2015-05-02T06:30:00Z,30.3288,-87.8293,1.785,3.89,1111122 
DISL,ioos:station:DISL:BSCA:1,2015-05-02T07:00:00Z,30.3288,-87.8293,1.789,3.88,1111122 
DISL,ioos:station:DISL:BSCA:1,2015-05-02T07:30:00Z,30.3288,-87.8293,1.789,3.85,1111122 
DISL,ioos:station:DISL:BSCA:1,2015-05-02T08:00:00Z,30.3288,-87.8293,1.799,3.8,1111122 
DISL,ioos:station:DISL:BSCA:1,2015-05-02T08:30:00Z,30.3288,-87.8293,1.805,3.66,1111122 
DISL,ioos:station:DISL:BSCA:1,2015-05-02T09:00:00Z,30.3288,-87.8293,1.813,3.67,1111122 
DISL,ioos:station:DISL:BSCA:1,2015-05-02T09:30:00Z,30.3288,-87.8293,1.826,3.6,1111122 
DISL,ioos:station:DISL:BSCA:1,2015-05-02T10:00:00Z,30.3288,-87.8293,1.842,3.56,1111122 
DISL,ioos:station:DISL:BSCA:1,2015-05-02T10:30:00Z,30.3288,-87.8293,1.872,3.5,1111122 
DISL,ioos:station:DISL:BSCA:1,2015-05-02T11:00:00Z,30.3288,-87.8293,1.901,3.44,1111122 
DISL,ioos:station:DISL:BSCA:1,2015-05-02T11:30:00Z,30.3288,-87.8293,1.93,3.42,1111122 
DISL,ioos:station:DISL:BSCA:1,2015-05-02T12:00:00Z,30.3288,-87.8293,1.953,3.47,1111122 
DISL,ioos:station:DISL:BSCA:1,2015-05-02T12:30:00Z,30.3288,-87.8293,1.975,3.48,1111122 
DISL,ioos:station:DISL:BSCA:1,2015-05-02T13:00:00Z,30.3288,-87.8293,2.001,3.38,1111122 
DISL,ioos:station:DISL:BSCA:1,2015-05-02T13:30:00Z,30.3288,-87.8293,2.025,3.3,1111122 
DISL,ioos:station:DISL:BSCA:1,2015-05-02T14:00:00Z,30.3288,-87.8293,2.047,3.25,1111122 
DISL,ioos:station:DISL:BSCA:1,2015-05-02T14:30:00Z,30.3288,-87.8293,2.071,3.23,1111122 
DISL,ioos:station:DISL:BSCA:1,2015-05-02T15:00:00Z,30.3288,-87.8293,2.08,3.32,1111122 
DISL,ioos:station:DISL:BSCA:1,2015-05-02T15:30:00Z,30.3288,-87.8293,2.092,3.27,1111122 
DISL,ioos:station:DISL:BSCA:1,2015-05-02T16:00:00Z,30.3288,-87.8293,2.089,3.19,1111122 
DISL,ioos:station:DISL:BSCA:1,2015-05-02T16:30:00Z,30.3288,-87.8293,2.082,3.17,1111122 
DISL,ioos:station:DISL:BSCA:1,2015-05-02T17:00:00Z,30.3288,-87.8293,2.077,3.21,1111122 
DISL,ioos:station:DISL:BSCA:1,2015-05-02T17:30:00Z,30.3288,-87.8293,2.058,3.22,1111122 
DISL,ioos:station:DISL:BSCA:1,2015-05-02T18:00:00Z,30.3288,-87.8293,2.037,3.73,1111122 
DISL,ioos:station:DISL:BSCA:1,2015-05-02T18:30:00Z,30.3288,-87.8293,2.008,4.39,1111122 
DISL,ioos:station:DISL:BSCA:1,2015-05-02T19:00:00Z,30.3288,-87.8293,1.975,4.13,1111122 
DISL,ioos:station:DISL:BSCA:1,2015-05-02T19:30:00Z,30.3288,-87.8293,1.941,3.85,1111122 
DISL,ioos:station:DISL:BSCA:1,2015-05-02T20:00:00Z,30.3288,-87.8293,1.914,3.57,1111122 
DISL,ioos:station:DISL:BSCA:1,2015-05-02T20:30:00Z,30.3288,-87.8293,1.888,3.88,1111122 
DISL,ioos:station:DISL:BSCA:1,2015-05-02T21:00:00Z,30.3288,-87.8293,1.859,3.83,1111122 
DISL,ioos:station:DISL:BSCA:1,2015-05-02T21:30:00Z,30.3288,-87.8293,1.811,3.36,1111122 
DISL,ioos:station:DISL:BSCA:1,2015-05-02T22:00:00Z,30.3288,-87.8293,1.809,3.31,1111122 
DISL,ioos:station:DISL:BSCA:1,2015-05-02T22:30:00Z,30.3288,-87.8293,1.785,3.32,1111122 
DISL,ioos:station:DISL:BSCA:1,2015-05-02T23:00:00Z,30.3288,-87.8293,1.766,3.09,1111122 
DISL,ioos:station:DISL:BSCA:1,2015-05-02T23:30:00Z,30.3288,-87.8293,1.741,3.14,1111122 
DISL,ioos:station:DISL:BSCA:1,2015-05-03T00:00:00Z,30.3288,-87.8293,1.732,3.16,1111122 
DISL,ioos:station:DISL:BSCA:1,2015-05-03T00:30:00Z,30.3288,-87.8293,1.728,3.19,1111122 
DISL,ioos:station:DISL:BSCA:1,2015-05-03T01:00:00Z,30.3288,-87.8293,1.734,2.88,1111122 
DISL,ioos:station:DISL:BSCA:1,2015-05-03T01:30:00Z,30.3288,-87.8293,1.749,2.94,1111122 
DISL,ioos:station:DISL:BSCA:1,2015-05-03T02:00:00Z,30.3288,-87.8293,1.761,3.01,1111122 
DISL,ioos:station:DISL:BSCA:1,2015-05-03T02:30:00Z,30.3288,-87.8293,1.778,3.11,1111122 
DISL,ioos:station:DISL:BSCA:1,2015-05-03T03:00:00Z,30.3288,-87.8293,1.796,2.71,1111122 
DISL,ioos:station:DISL:BSCA:1,2015-05-03T03:30:00Z,30.3288,-87.8293,1.817,2.8,1111122 
DISL,ioos:station:DISL:BSCA:1,2015-05-03T04:00:00Z,30.3288,-87.8293,1.841,2.65,1111122 
DISL,ioos:station:DISL:BSCA:1,2015-05-03T04:30:00Z,30.3288,-87.8293,1.851,2.44,1111122 
DISL,ioos:station:DISL:BSCA:1,2015-05-03T05:00:00Z,30.3288,-87.8293,1.878,2.38,1111122 
DISL,ioos:station:DISL:BSCA:1,2015-05-03T05:30:00Z,30.3288,-87.8293,1.898,2.36,1111122 
DISL,ioos:station:DISL:BSCA:1,2015-05-03T06:00:00Z,30.3288,-87.8293,1.908,2.45,1111122 
DISL,ioos:station:DISL:BSCA:1,2015-05-03T06:30:00Z,30.3288,-87.8293,1.922,2.44,1111122 
DISL,ioos:station:DISL:BSCA:1,2015-05-03T07:00:00Z,30.3288,-87.8293,1.936,2.4,1111122 
DISL,ioos:station:DISL:BSCA:1,2015-05-03T07:30:00Z,30.3288,-87.8293,1.948,2.39,1111122 
DISL,ioos:station:DISL:BSCA:1,2015-05-03T08:00:00Z,30.3288,-87.8293,1.958,2.42,1111122 
DISL,ioos:station:DISL:BSCA:1,2015-05-03T08:30:00Z,30.3288,-87.8293,1.967,2.44,1111122 
DISL,ioos:station:DISL:BSCA:1,2015-05-03T09:00:00Z,30.3288,-87.8293,1.965,2.47,1111122 
DISL,ioos:station:DISL:BSCA:1,2015-05-03T09:30:00Z,30.3288,-87.8293,1.972,2.51,1111122 
DISL,ioos:station:DISL:BSCA:1,2015-05-03T10:00:00Z,30.3288,-87.8293,1.973,2.55,1111122 
DISL,ioos:station:DISL:BSCA:1,2015-05-03T10:30:00Z,30.3288,-87.8293,2.004,2.54,1111122 
DISL,ioos:station:DISL:BSCA:1,2015-05-03T11:00:00Z,30.3288,-87.8293,2.008,2.55,1111122 
DISL,ioos:station:DISL:BSCA:1,2015-05-03T11:30:00Z,30.3288,-87.8293,2.018,2.6,1111122 
DISL,ioos:station:DISL:BSCA:1,2015-05-03T12:00:00Z,30.3288,-87.8293,2.036,2.62,1111122 
DISL,ioos:station:DISL:BSCA:1,2015-05-03T12:30:00Z,30.3288,-87.8293,2.056,2.67,1111122 
DISL,ioos:station:DISL:BSCA:1,2015-05-03T13:00:00Z,30.3288,-87.8293,2.071,2.7,1111122 
DISL,ioos:station:DISL:BSCA:1,2015-05-03T13:30:00Z,30.3288,-87.8293,2.101,2.77,1111122 
DISL,ioos:station:DISL:BSCA:1,2015-05-03T14:00:00Z,30.3288,-87.8293,2.11,2.83,1111122 
DISL,ioos:station:DISL:BSCA:1,2015-05-03T14:30:00Z,30.3288,-87.8293,2.116,2.98,1111122 
DISL,ioos:station:DISL:BSCA:1,2015-05-03T15:00:00Z,30.3288,-87.8293,2.121,3.04,1111122 
DISL,ioos:station:DISL:BSCA:1,2015-05-03T15:30:00Z,30.3288,-87.8293,2.121,3.03,1111122 
DISL,ioos:station:DISL:BSCA:1,2015-05-03T16:00:00Z,30.3288,-87.8293,2.133,2.85,1111122 
DISL,ioos:station:DISL:BSCA:1,2015-05-03T16:30:00Z,30.3288,-87.8293,2.119,2.46,1111122 
DISL,ioos:station:DISL:BSCA:1,2015-05-03T17:00:00Z,30.3288,-87.8293,2.113,2.55,1111122 
DISL,ioos:station:DISL:BSCA:1,2015-05-03T17:30:00Z,30.3288,-87.8293,2.101,2.71,1111122 
DISL,ioos:station:DISL:BSCA:1,2015-05-03T18:00:00Z,30.3288,-87.8293,2.075,2.85,1111122 
DISL,ioos:station:DISL:BSCA:1,2015-05-03T18:30:00Z,30.3288,-87.8293,2.061,2.85,1111122 
DISL,ioos:station:DISL:BSCA:1,2015-05-03T19:00:00Z,30.3288,-87.8293,2.036,2.81,1111122 
DISL,ioos:station:DISL:BSCA:1,2015-05-03T19:30:00Z,30.3288,-87.8293,2.014,2.79,1111122 
DISL,ioos:station:DISL:BSCA:1,2015-05-03T20:00:00Z,30.3288,-87.8293,1.987,2.78,1111122 
DISL,ioos:station:DISL:BSCA:1,2015-05-03T20:30:00Z,30.3288,-87.8293,1.954,2.76,1111122 
DISL,ioos:station:DISL:BSCA:1,2015-05-03T21:00:00Z,30.3288,-87.8293,1.919,2.61,1111122 
DISL,ioos:station:DISL:BSCA:1,2015-05-03T21:30:00Z,30.3288,-87.8293,1.897,2.47,1111122 
DISL,ioos:station:DISL:BSCA:1,2015-05-03T22:00:00Z,30.3288,-87.8293,1.86,2.5,1111122 
DISL,ioos:station:DISL:BSCA:1,2015-05-03T22:30:00Z,30.3288,-87.8293,1.841,2.52,1111122 
DISL,ioos:station:DISL:BSCA:1,2015-05-03T23:00:00Z,30.3288,-87.8293,1.807,2.5,1111122 
DISL,ioos:station:DISL:BSCA:1,2015-05-03T23:30:00Z,30.3288,-87.8293,1.778,2.48,1111122 
DISL,ioos:station:DISL:BSCA:1,2015-05-04T00:00:00Z,30.3288,-87.8293,1.768,2.46,1111122 
DISL,ioos:station:DISL:BSCA:1,2015-05-04T00:30:00Z,30.3288,-87.8293,1.753,2.43,1111122 
DISL,ioos:station:DISL:BSCA:1,2015-05-04T01:00:00Z,30.3288,-87.8293,1.744,2.43,1111122 
DISL,ioos:station:DISL:BSCA:1,2015-05-04T01:30:00Z,30.3288,-87.8293,1.745,2.41,1111122 
DISL,ioos:station:DISL:BSCA:1,2015-05-04T02:00:00Z,30.3288,-87.8293,1.746,2.4,1111122 
DISL,ioos:station:DISL:BSCA:1,2015-05-04T02:30:00Z,30.3288,-87.8293,1.754,2.39,1111122 
DISL,ioos:station:DISL:BSCA:1,2015-05-04T03:00:00Z,30.3288,-87.8293,1.765,2.39,1111122 
DISL,ioos:station:DISL:BSCA:1,2015-05-04T03:30:00Z,30.3288,-87.8293,1.783,2.47,1111122 
DISL,ioos:station:DISL:BSCA:1,2015-05-04T04:00:00Z,30.3288,-87.8293,1.8,2.51,1111122 
DISL,ioos:station:DISL:BSCA:1,2015-05-04T04:30:00Z,30.3288,-87.8293,1.826,2.58,1111122 
DISL,ioos:station:DISL:BSCA:1,2015-05-04T05:00:00Z,30.3288,-87.8293,1.85,2.67,1111122 
DISL,ioos:station:DISL:BSCA:1,2015-05-04T05:30:00Z,30.3288,-87.8293,1.873,2.66,1111122 
DISL,ioos:station:DISL:BSCA:1,2015-05-04T06:00:00Z,30.3288,-87.8293,1.898,2.52,1111122 
DISL,ioos:station:DISL:BSCA:1,2015-05-04T06:30:00Z,30.3288,-87.8293,1.923,2.62,1111122 
DISL,ioos:station:DISL:BSCA:1,2015-05-04T07:00:00Z,30.3288,-87.8293,1.959,2.71,1111122 
DISL,ioos:station:DISL:BSCA:1,2015-05-04T07:30:00Z,30.3288,-87.8293,1.993,2.7,1111122 
DISL,ioos:station:DISL:BSCA:1,2015-05-04T08:00:00Z,30.3288,-87.8293,2.035,2.68,1111122 
DISL,ioos:station:DISL:BSCA:1,2015-05-04T08:30:00Z,30.3288,-87.8293,2.051,2.63,1111122 
DISL,ioos:station:DISL:BSCA:1,2015-05-04T09:00:00Z,30.3288,-87.8293,2.062,2.6,1111122 
DISL,ioos:station:DISL:BSCA:1,2015-05-04T09:30:00Z,30.3288,-87.8293,2.07,2.55,1111122 
DISL,ioos:station:DISL:BSCA:1,2015-05-04T10:00:00Z,30.3288,-87.8293,2.073,2.57,1111122 
DISL,ioos:station:DISL:BSCA:1,2015-05-04T10:30:00Z,30.3288,-87.8293,2.08,2.6,1111122 
DISL,ioos:station:DISL:BSCA:1,2015-05-04T11:00:00Z,30.3288,-87.8293,2.08,2.62,1111122 
DISL,ioos:station:DISL:BSCA:1,2015-05-04T11:30:00Z,30.3288,-87.8293,2.089,2.64,1111122 
DISL,ioos:station:DISL:BSCA:1,2015-05-04T12:00:00Z,30.3288,-87.8293,2.098,2.64,1111122 
DISL,ioos:station:DISL:BSCA:1,2015-05-04T12:30:00Z,30.3288,-87.8293,2.125,2.71,1111122 
DISL,ioos:station:DISL:BSCA:1,2015-05-04T13:00:00Z,30.3288,-87.8293,2.147,2.76,1111122 
DISL,ioos:station:DISL:BSCA:1,2015-05-04T13:30:00Z,30.3288,-87.8293,2.176,2.78,1111122 
DISL,ioos:station:DISL:BSCA:1,2015-05-04T14:00:00Z,30.3288,-87.8293,2.193,2.78,1111122 
DISL,ioos:station:DISL:BSCA:1,2015-05-04T14:30:00Z,30.3288,-87.8293,2.19,2.78,1111122 
DISL,ioos:station:DISL:BSCA:1,2015-05-04T15:00:00Z,30.3288,-87.8293,2.179,2.84,1111122 
DISL,ioos:station:DISL:BSCA:1,2015-05-04T15:30:00Z,30.3288,-87.8293,2.17,2.92,1111122 
DISL,ioos:station:DISL:BSCA:1,2015-05-04T16:00:00Z,30.3288,-87.8293,2.16,2.9,1111122 
DISL,ioos:station:DISL:BSCA:1,2015-05-04T16:30:00Z,30.3288,-87.8293,2.162,2.91,1111122 
DISL,ioos:station:DISL:BSCA:1,2015-05-04T17:00:00Z,30.3288,-87.8293,2.152,2.93,1111122 
DISL,ioos:station:DISL:BSCA:1,2015-05-04T17:30:00Z,30.3288,-87.8293,2.158,2.93,1111122 
DISL,ioos:station:DISL:BSCA:1,2015-05-04T18:00:00Z,30.3288,-87.8293,2.172,2.98,1111122 
DISL,ioos:station:DISL:BSCA:1,2015-05-04T18:30:00Z,30.3288,-87.8293,2.171,2.99,1111122 
DISL,ioos:station:DISL:BSCA:1,2015-05-04T19:00:00Z,30.3288,-87.8293,2.184,2.98,1111122 
DISL,ioos:station:DISL:BSCA:1,2015-05-04T19:30:00Z,30.3288,-87.8293,2.165,3.02,1111122 
DISL,ioos:station:DISL:BSCA:1,2015-05-04T20:00:00Z,30.3288,-87.8293,2.133,3.01,1111122 
DISL,ioos:station:DISL:BSCA:1,2015-05-04T20:30:00Z,30.3288,-87.8293,2.095,3.02,1111122 
DISL,ioos:station:DISL:BSCA:1,2015-05-04T21:00:00Z,30.3288,-87.8293,2.051,3.03,1111122 
DISL,ioos:station:DISL:BSCA:1,2015-05-04T21:30:00Z,30.3288,-87.8293,2.02,3.01,1111122 
DISL,ioos:station:DISL:BSCA:1,2015-05-04T22:00:00Z,30.3288,-87.8293,1.979,2.99,1111122 
DISL,ioos:station:DISL:BSCA:1,2015-05-04T22:30:00Z,30.3288,-87.8293,1.966,3.0,1111122 
DISL,ioos:station:DISL:BSCA:1,2015-05-04T23:00:00Z,30.3288,-87.8293,1.95,2.99,1111122 
DISL,ioos:station:DISL:BSCA:1,2015-05-04T23:30:00Z,30.3288,-87.8293,1.934,2.99,1111122 
DISL,ioos:station:DISL:BSCA:1,2015-05-05T00:00:00Z,30.3288,-87.8293,1.926,3.02,1111122 
DISL,ioos:station:DISL:BSCA:1,2015-05-05T00:30:00Z,30.3288,-87.8293,1.903,3.07,1111122 
DISL,ioos:station:DISL:BSCA:1,2015-05-05T01:00:00Z,30.3288,-87.8293,1.879,3.04,1111122 
DISL,ioos:station:DISL:BSCA:1,2015-05-05T01:30:00Z,30.3288,-87.8293,1.853,3.03,1111122 
DISL,ioos:station:DISL:BSCA:1,2015-05-05T02:00:00Z,30.3288,-87.8293,1.84,3.07,1111122 
DISL,ioos:station:DISL:BSCA:1,2015-05-05T02:30:00Z,30.3288,-87.8293,1.841,3.09,1111122 
DISL,ioos:station:DISL:BSCA:1,2015-05-05T03:00:00Z,30.3288,-87.8293,1.827,3.14,1111122 
DISL,ioos:station:DISL:BSCA:1,2015-05-05T03:30:00Z,30.3288,-87.8293,1.844,3.13,1111122 
DISL,ioos:station:DISL:BSCA:1,2015-05-05T04:00:00Z,30.3288,-87.8293,1.842,3.07,1111122 
DISL,ioos:station:DISL:BSCA:1,2015-05-05T04:30:00Z,30.3288,-87.8293,1.853,3.17,1111122 
DISL,ioos:station:DISL:BSCA:1,2015-05-05T05:00:00Z,30.3288,-87.8293,1.864,3.04,1111122 
DISL,ioos:station:DISL:BSCA:1,2015-05-05T05:30:00Z,30.3288,-87.8293,1.874,3.17,1111122 
DISL,ioos:station:DISL:BSCA:1,2015-05-05T06:00:00Z,30.3288,-87.8293,1.881,3.24,1111122 
DISL,ioos:station:DISL:BSCA:1,2015-05-05T06:30:00Z,30.3288,-87.8293,1.909,3.04,1111122 
DISL,ioos:station:DISL:BSCA:1,2015-05-05T07:00:00Z,30.3288,-87.8293,1.935,3.08,1111122 
DISL,ioos:station:DISL:BSCA:1,2015-05-05T07:30:00Z,30.3288,-87.8293,1.949,3.36,1111122 
DISL,ioos:station:DISL:BSCA:1,2015-05-05T08:00:00Z,30.3288,-87.8293,1.96,3.16,1111122 
DISL,ioos:station:DISL:BSCA:1,2015-05-05T08:30:00Z,30.3288,-87.8293,1.991,3.27,1111122 
DISL,ioos:station:DISL:BSCA:1,2015-05-05T09:00:00Z,30.3288,-87.8293,2.005,3.41,1111122 
DISL,ioos:station:DISL:BSCA:1,2015-05-05T09:30:00Z,30.3288,-87.8293,2.012,3.42,1111122 
DISL,ioos:station:DISL:BSCA:1,2015-05-05T10:00:00Z,30.3288,-87.8293,2.023,3.52,1111122 
DISL,ioos:station:DISL:BSCA:1,2015-05-05T10:30:00Z,30.3288,-87.8293,2.038,3.4,1111122 
DISL,ioos:station:DISL:BSCA:1,2015-05-05T11:00:00Z,30.3288,-87.8293,2.049,3.45,1111122 
DISL,ioos:station:DISL:BSCA:1,2015-05-05T11:30:00Z,30.3288,-87.8293,2.066,3.5,1111122 
DISL,ioos:station:DISL:BSCA:1,2015-05-05T12:00:00Z,30.3288,-87.8293,2.077,3.45,1111122 
DISL,ioos:station:DISL:BSCA:1,2015-05-05T12:30:00Z,30.3288,-87.8293,2.093,3.39,1111122 
DISL,ioos:station:DISL:BSCA:1,2015-05-05T13:00:00Z,30.3288,-87.8293,2.12,3.49,1111122 
DISL,ioos:station:DISL:BSCA:1,2015-05-05T13:30:00Z,30.3288,-87.8293,2.144,4.13,1111122 
DISL,ioos:station:DISL:BSCA:1,2015-05-05T14:00:00Z,30.3288,-87.8293,2.174,4.1,1111122 
DISL,ioos:station:DISL:BSCA:1,2015-05-05T14:30:00Z,30.3288,-87.8293,2.195,4.69,1111122 
DISL,ioos:station:DISL:BSCA:1,2015-05-05T15:00:00Z,30.3288,-87.8293,2.217,4.77,1111122 
DISL,ioos:station:DISL:BSCA:1,2015-05-05T15:30:00Z,30.3288,-87.8293,2.22,3.7,1111122 
DISL,ioos:station:DISL:BSCA:1,2015-05-05T16:00:00Z,30.3288,-87.8293,2.224,3.92,1111122 
DISL,ioos:station:DISL:BSCA:1,2015-05-05T16:30:00Z,30.3288,-87.8293,2.236,4.59,1111122 
DISL,ioos:station:DISL:BSCA:1,2015-05-05T17:00:00Z,30.3288,-87.8293,2.253,4.88,1111122 
DISL,ioos:station:DISL:BSCA:1,2015-05-05T17:30:00Z,30.3288,-87.8293,2.267,4.96,1111122 
DISL,ioos:station:DISL:BSCA:1,2015-05-05T18:00:00Z,30.3288,-87.8293,2.279,5.09,1111122 
DISL,ioos:station:DISL:BSCA:1,2015-05-05T18:30:00Z,30.3288,-87.8293,2.268,5.6,1111122 
DISL,ioos:station:DISL:BSCA:1,2015-05-05T19:00:00Z,30.3288,-87.8293,2.256,5.86,1111122 
DISL,ioos:station:DISL:BSCA:1,2015-05-05T19:30:00Z,30.3288,-87.8293,2.234,6.01,1111122 
DISL,ioos:station:DISL:BSCA:1,2015-05-05T20:00:00Z,30.3288,-87.8293,2.209,5.89,1111122 
DISL,ioos:station:DISL:BSCA:1,2015-05-05T20:30:00Z,30.3288,-87.8293,2.176,5.36,1111122 
DISL,ioos:station:DISL:BSCA:1,2015-05-05T21:00:00Z,30.3288,-87.8293,2.149,5.06,1111122 
DISL,ioos:station:DISL:BSCA:1,2015-05-05T21:30:00Z,30.3288,-87.8293,2.106,5.01,1111122 
DISL,ioos:station:DISL:BSCA:1,2015-05-05T22:00:00Z,30.3288,-87.8293,2.086,5.04,1111122 
DISL,ioos:station:DISL:BSCA:1,2015-05-05T22:30:00Z,30.3288,-87.8293,2.062,4.84,1111122 
DISL,ioos:station:DISL:BSCA:1,2015-05-05T23:00:00Z,30.3288,-87.8293,2.041,4.84,1111122 
DISL,ioos:station:DISL:BSCA:1,2015-05-05T23:30:00Z,30.3288,-87.8293,2.025,4.71,1111122 
DISL,ioos:station:DISL:BSCA:1,2015-05-06T00:00:00Z,30.3288,-87.8293,1.994,4.76,1111122 
DISL,ioos:station:DISL:BSCA:1,2015-05-06T00:30:00Z,30.3288,-87.8293,1.979,4.74,1111122 
DISL,ioos:station:DISL:BSCA:1,2015-05-06T01:00:00Z,30.3288,-87.8293,1.947,4.75,1111122 
DISL,ioos:station:DISL:BSCA:1,2015-05-06T01:30:00Z,30.3288,-87.8293,1.925,4.75,1111122 
DISL,ioos:station:DISL:BSCA:1,2015-05-06T02:00:00Z,30.3288,-87.8293,1.909,4.69,1111122 
DISL,ioos:station:DISL:BSCA:1,2015-05-06T02:30:00Z,30.3288,-87.8293,1.891,4.56,1111122 
DISL,ioos:station:DISL:BSCA:1,2015-05-06T03:00:00Z,30.3288,-87.8293,1.873,4.5,1111122 
DISL,ioos:station:DISL:BSCA:1,2015-05-06T03:30:00Z,30.3288,-87.8293,1.854,4.5,1111122 
DISL,ioos:station:DISL:BSCA:1,2015-05-06T04:00:00Z,30.3288,-87.8293,1.842,4.39,1111122 
DISL,ioos:station:DISL:BSCA:1,2015-05-06T04:30:00Z,30.3288,-87.8293,1.836,4.31,1111122 
DISL,ioos:station:DISL:BSCA:1,2015-05-06T05:00:00Z,30.3288,-87.8293,1.843,4.37,1111122 
DISL,ioos:station:DISL:BSCA:1,2015-05-06T05:30:00Z,30.3288,-87.8293,1.851,4.53,1111122 
DISL,ioos:station:DISL:BSCA:1,2015-05-06T06:00:00Z,30.3288,-87.8293,1.863,4.57,1111122 
DISL,ioos:station:DISL:BSCA:1,2015-05-06T06:30:00Z,30.3288,-87.8293,1.889,4.8,1111122 
DISL,ioos:station:DISL:BSCA:1,2015-05-06T07:00:00Z,30.3288,-87.8293,1.914,4.97,1111122 
DISL,ioos:station:DISL:BSCA:1,2015-05-06T07:30:00Z,30.3288,-87.8293,1.936,5.14,1111122 
DISL,ioos:station:DISL:BSCA:1,2015-05-06T08:00:00Z,30.3288,-87.8293,1.96,5.34,1111122 
DISL,ioos:station:DISL:BSCA:1,2015-05-06T08:30:00Z,30.3288,-87.8293,1.97,5.61,1111122 
DISL,ioos:station:DISL:BSCA:1,2015-05-06T09:00:00Z,30.3288,-87.8293,1.992,5.58,1111122 
DISL,ioos:station:DISL:BSCA:1,2015-05-06T09:30:00Z,30.3288,-87.8293,1.995,5.65,1111122 
DISL,ioos:station:DISL:BSCA:1,2015-05-06T10:00:00Z,30.3288,-87.8293,2.018,5.97,1111122 
DISL,ioos:station:DISL:BSCA:1,2015-05-06T10:30:00Z,30.3288,-87.8293,2.033,6.03,1111122 
DISL,ioos:station:DISL:BSCA:1,2015-05-06T11:00:00Z,30.3288,-87.8293,2.047,6.39,1111122 
DISL,ioos:station:DISL:BSCA:1,2015-05-06T11:30:00Z,30.3288,-87.8293,2.061,6.51,1111122 
DISL,ioos:station:DISL:BSCA:1,2015-05-06T12:00:00Z,30.3288,-87.8293,2.083,6.54,1111122 
DISL,ioos:station:DISL:BSCA:1,2015-05-06T12:30:00Z,30.3288,-87.8293,2.102,6.66,1111122 
DISL,ioos:station:DISL:BSCA:1,2015-05-06T13:00:00Z,30.3288,-87.8293,2.127,6.67,1111122 
DISL,ioos:station:DISL:BSCA:1,2015-05-06T13:30:00Z,30.3288,-87.8293,2.157,6.67,1111122 
DISL,ioos:station:DISL:BSCA:1,2015-05-06T14:00:00Z,30.3288,-87.8293,2.191,6.86,1111122 
DISL,ioos:station:DISL:BSCA:1,2015-05-06T14:30:00Z,30.3288,-87.8293,2.213,6.49,1111122 
DISL,ioos:station:DISL:BSCA:1,2015-05-06T15:00:00Z,30.3288,-87.8293,2.232,6.26,1111122 
DISL,ioos:station:DISL:BSCA:1,2015-05-06T15:30:00Z,30.3288,-87.8293,2.248,6.19,1111122 